User: anonymous   Login
Location: Unspecified
(90.0000°S, 0.0000°E)
Time: 11:07:43
(UTC+00:00)
Language:

XW-2F - Orbit

View from above orbital plane
View from above orbital plane
View from above satellite
View from above satellite

Ground track
Ground track

The orbit data is extracted from the following two-line orbital elements,

1 40910U 15049M   19293.96957910  .00000772  00000-0  41803-4 0  9999
2 40910  97.4657 295.8950 0016166 114.2646 276.2508 15.17474753225863
Epoch (UTC): 20 October 2019 23:16:11
Eccentricity: 0.0016166
inclination: 97.4657°
perigee height: 502 km
apogee height: 524 km
right ascension of ascending node: 295.8950°
argument of perigee: 114.2646°
revolutions per day: 15.17474753
mean anomaly at epoch: 276.2508°
orbit number at epoch: 22586

The dashed part of the orbit path shows where the satellite is in the earth's shadow,  

DLR